Location: ???????
(55.3754°N, 39.3545°E)
Time: 21:37:15
(UTC+00:00)

Cosmos 2151 - Pass Details

Date: 14 April 2026
Orbit: 557 x 574 km, 82.5° (Epoch: 16 May)

Event Time Altitude Azimuth Distance (km) Brightness Sun altitude
Rises 22:05:17 0° 348° (NNW) 2,802 7.5 -24.3°
Reaches altitude 10° 22:07:30 10° 351° (N) 1,898 6.5 -24.3°
Enters shadow 22:11:35 74° 59° (ENE) 606 3.0 -24.2°
